This is the latest recevied weather packets stored in our database for station/object YN1JLX-13. If no packets are shown the sender has not sent any weather packets the latest 10 day(s).
| Time | Temp. | Humidity | Pressure | Rain* | Wind** | Luminosity | Snow |
|---|---|---|---|---|---|---|---|
| 1778224630 | 20° C | 74% | 1011 hPa | 0 mm | - | - | - |
| 1778224030 | 18.89° C | 74% | 1011 hPa | 0 mm | - | - | - |
| 1778223429 | 20° C | 74% | 1011 hPa | 0 mm | - | - | - |
| 1778222829 | 21.11° C | 74% | 1011 hPa | 0 mm | - | - | - |
| 1778222229 | 18.33° C | 77% | 1011 hPa | 0 mm | - | - | - |
| 1778221628 | 18.89° C | 72% | 1012 hPa | 0 mm | - | - | - |
| 1778221028 | 18.33° C | 72% | 1012 hPa | 0 mm | - | - | - |
| 1778220428 | 18.33° C | 72% | 1012 hPa | 0 mm | - | - | - |
| 1778219827 | 19.44° C | 72% | 1012 hPa | 0 mm | - | - | - |
| 1778219227 | 18.33° C | 73% | 1012 hPa | 0 mm | - | - | - |
| 1778218626 | 19.44° C | 73% | 1012 hPa | 0 mm | - | - | - |
| 1778218026 | 20.56° C | 73% | 1012 hPa | 0 mm | - | - | - |
| 1778217425 | 20.56° C | 73% | 1012 hPa | 0 mm | - | - | - |
| 1778216825 | 21.67° C | 73% | 1012 hPa | 0 mm | - | - | - |
| 1778216225 | 21.67° C | 73% | 1012 hPa | 0 mm | - | - | - |
| 1778215624 | 22.22° C | 73% | 1012 hPa | 0 mm | - | - | - |
| 1778215024 | 21.11° C | 72% | 1012 hPa | 0 mm | - | - | - |
| 1778214424 | 21.67° C | 72% | 1011 hPa | 0 mm | - | - | - |
| 1778213823 | 22.22° C | 72% | 1011 hPa | 0 mm | - | - | - |
| 1778213223 | 21.67° C | 71% | 1011 hPa | 0 mm | - | - | - |
| 1778212623 | 22.78° C | 71% | 1011 hPa | 0 mm | - | - | - |
| 1778212023 | 22.78° C | 71% | 1011 hPa | 0 mm | - | - | - |
| 1778211422 | 21.67° C | 69% | 1011 hPa | 0 mm | - | - | - |
| 1778210822 | 22.78° C | 69% | 1011 hPa | 0 mm | - | - | - |
| 1778210221 | 21.11° C | 68% | 1011 hPa | 0 mm | - | - | - |
* Rain latest hour (hover to see other rain measurements)
** Current wind speed in m/s (hover to see current wind gust speed)